| time (UTC) | temp C | wind direction | speed KPH | gust KPH | rain 1hr cm | rain 24hr cm | rain mn cm | humidity % | barometer mb |
| 20260906113421 | 26 | 304 | 0.0 | 3.2 | 0.00 | 0.00 | 0.00 | 95 | 1010.5 |
| 20260906112917 | 26 | 301 | 0.0 | 3.2 | 0.00 | 0.00 | 0.00 | 95 | 1010.8 |
| 20260906112413 | 26 | 295 | 0.0 | 4.8 | 0.00 | 0.00 | 0.00 | 95 | 1010.5 |
| 20260906111908 | 26 | 319 | 0.0 | 4.8 | 0.00 | 0.00 | 0.00 | 95 | 1010.5 |
| 20260906111407 | 26 | 288 | 0.0 | 3.2 | 0.00 | 0.00 | 0.00 | 95 | 1010.5 |
| 20260906110902 | 26 | 288 | 0.0 | 4.8 | 0.00 | 0.00 | 0.00 | 95 | 1010.5 |
| 20260906110358 | 26 | 297 | 4.8 | 4.8 | 0.00 | 0.00 | 0.00 | 95 | 1010.1 |
| 20260906105857 | 26 | 224 | 0.0 | 4.8 | 0.00 | 0.00 | 0.00 | 95 | 1010.5 |
| 20260906105353 | 26 | 259 | 1.6 | 8.0 | 0.00 | 0.00 | 0.00 | 95 | 1010.1 |
| 20260906104848 | 26 | 257 | 1.6 | 8.0 | 0.00 | 0.00 | 0.00 | 95 | 1010.1 |
| 20260906104347 | 26 | 325 | 1.6 | 4.8 | 0.00 | 0.00 | 0.00 | 95 | 1010.5 |
| 20260906103845 | 26 | 274 | 0.0 | 3.2 | 0.00 | 0.00 | 0.00 | 95 | 1010.1 |
| 20260906103344 | 26 | 279 | 0.0 | 3.2 | 0.00 | 0.00 | 0.00 | 95 | 1010.1 |
| 20260906102840 | 26 | 260 | 0.0 | 3.2 | 0.00 | 0.00 | 0.00 | 95 | 1010.1 |
| 20260906102339 | 26 | 272 | 0.0 | 4.8 | 0.00 | 0.00 | 0.00 | 95 | 1010.1 |
| 20260906101834 | 26 | 246 | 1.6 | 11.3 | 0.00 | 0.00 | 0.00 | 95 | 1010.1 |
| 20260906101329 | 26 | 286 | 0.0 | 11.3 | 0.00 | 0.00 | 0.00 | 95 | 1010.5 |
| 20260906100825 | 26 | 243 | 3.2 | 3.2 | 0.00 | 0.00 | 0.00 | 95 | 1010.1 |
| 20260906100324 | 26 | 251 | 0.0 | 3.2 | 0.00 | 0.00 | 0.00 | 95 | 1010.1 |
| 20260906095819 | 26 | 228 | 0.0 | 3.2 | 0.00 | 0.00 | 0.00 | 95 | 1010.1 |
| 20260906095315 | 26 | 245 | 0.0 | 4.8 | 0.00 | 0.00 | 0.00 | 95 | 1010.1 |
| 20260906094814 | 26 | 261 | 1.6 | 4.8 | 0.00 | 0.00 | 0.00 | 95 | 1010.1 |
| 20260906094309 | 26 | 231 | 0.0 | 3.2 | 0.00 | 0.00 | 0.00 | 95 | 1010.1 |
| 20260906093805 | 26 | 267 | 1.6 | 3.2 | 0.00 | 0.00 | 0.00 | 95 | 1009.8 |
| 20260906093301 | 26 | 230 | 0.0 | 1.6 | 0.00 | 0.00 | 0.00 | 95 | 1009.8 |
| 20260906092755 | 26 | 230 | 0.0 | 1.6 | 0.00 | 0.00 | 0.00 | 95 | 1010.1 |
| 20260906092250 | 26 | 220 | 1.6 | 4.8 | 0.00 | 0.00 | 0.00 | 95 | 1009.8 |
| 20260906091746 | 26 | 307 | 0.0 | 4.8 | 0.00 | 0.00 | 0.00 | 95 | 1009.8 |
| 20260906091242 | 26 | 306 | 0.0 | 4.8 | 0.00 | 0.00 | 0.00 | 95 | 1009.8 |
| 20260906090738 | 26 | 344 | 1.6 | 3.2 | 0.00 | 0.00 | 0.00 | 95 | 1009.8 |
| 20260906090237 | 26 | 260 | 0.0 | 3.2 | 0.00 | 0.00 | 0.00 | 95 | 1010.1 |
| 20260906085736 | 26 | 232 | 1.6 | 3.2 | 0.00 | 0.00 | 0.00 | 95 | 1009.8 |
| 20260906085236 | 26 | 284 | 1.6 | 3.2 | 0.00 | 0.00 | 0.00 | 95 | 1010.1 |
| 20260906084730 | 26 | 288 | 0.0 | 3.2 | 0.00 | 0.00 | 0.00 | 95 | 1010.1 |
| 20260906084225 | 26 | 290 | 0.0 | 3.2 | 0.00 | 0.00 | 0.00 | 95 | 1009.8 |
| 20260906083720 | 26 | 218 | 0.0 | 0.0 | 0.00 | 0.00 | 0.00 | 95 | 1010.1 |
| 20260906083215 | 26 | 218 | 0.0 | 1.6 | 0.00 | 0.00 | 0.00 | 95 | 1010.1 |
| 20260906082710 | 26 | 218 | 0.0 | 1.6 | 0.00 | 0.00 | 0.00 | 95 | 1010.1 |
| 20260906082205 | 26 | 218 | 1.6 | 1.6 | 0.00 | 0.00 | 0.00 | 95 | 1009.8 |
| 20260906081702 | 26 | 217 | 0.0 | 1.6 | 0.00 | 0.00 | 0.00 | 95 | 1010.1 |
| 20260906081156 | 26 | 217 | 0.0 | 0.0 | 0.00 | 0.00 | 0.00 | 95 | 1010.1 |
| 20260906080653 | 26 | 217 | 0.0 | 0.0 | 0.00 | 0.00 | 0.00 | 95 | 1010.5 |
| 20260906080149 | 26 | 217 | 0.0 | 3.2 | 0.00 | 0.00 | 0.00 | 95 | 1010.1 |
| 20260906075648 | 26 | 217 | 0.0 | 3.2 | 0.00 | 0.00 | 0.00 | 95 | 1010.1 |
| 20260906075143 | 26 | 217 | 1.6 | 1.6 | 0.00 | 0.00 | 0.00 | 95 | 1009.8 |
| 20260906074638 | 26 | 218 | 0.0 | 1.6 | 0.00 | 0.00 | 0.00 | 95 | 1009.8 |
| 20260906074137 | 26 | 218 | 0.0 | 3.2 | 0.00 | 0.00 | 0.00 | 95 | 1010.1 |
| 20260906073632 | 26 | 209 | 0.0 | 1.6 | 0.00 | 0.00 | 0.00 | 94 | 1010.1 |
| 20260906073128 | 26 | 208 | 0.0 | 1.6 | 0.00 | 0.00 | 0.00 | 94 | 1010.1 |
| 20260906072622 | 26 | 208 | 0.0 | 1.6 | 0.00 | 0.00 | 0.00 | 94 | 1010.1 |
| 20260906072118 | 26 | 208 | 0.0 | 1.6 | 0.00 | 0.00 | 0.00 | 94 | 1009.8 |
| 20260906071615 | 26 | 167 | 0.0 | 0.0 | 0.00 | 0.00 | 0.00 | 94 | 1010.1 |
| 20260906071109 | 26 | 167 | 0.0 | 0.0 | 0.00 | 0.00 | 0.00 | 94 | 1010.1 |
| 20260906070606 | 26 | 167 | 0.0 | 1.6 | 0.00 | 0.00 | 0.00 | 94 | 1010.1 |
| 20260906070101 | 26 | 167 | 0.0 | 4.8 | 0.00 | 0.00 | 0.00 | 94 | 1010.1 |
| 20260906065600 | 26 | 167 | 0.0 | 4.8 | 0.00 | 0.00 | 0.00 | 94 | 1009.8 |
| 20260906065056 | 26 | 241 | 0.0 | 1.6 | 0.00 | 0.00 | 0.00 | 94 | 1010.1 |
| 20260906064552 | 26 | 241 | 0.0 | 1.6 | 0.00 | 0.00 | 0.00 | 94 | 1010.1 |
| 20260906064046 | 26 | 241 | 0.0 | 1.6 | 0.00 | 0.00 | 0.00 | 94 | 1009.8 |
| 20260906063541 | 26 | 237 | 0.0 | 1.6 | 0.00 | 0.00 | 0.00 | 94 | 1010.1 |
| 20260906063038 | 26 | 237 | 1.6 | 1.6 | 0.00 | 0.00 | 0.00 | 94 | 1010.1 |
| 20260906062533 | 26 | 237 | 0.0 | 1.6 | 0.00 | 0.00 | 0.00 | 94 | 1010.1 |
| 20260906062027 | 26 | 237 | 0.0 | 1.6 | 0.00 | 0.00 | 0.00 | 94 | 1010.5 |
| 20260906061523 | 26 | 237 | 0.0 | 1.6 | 0.00 | 0.00 | 0.00 | 94 | 1010.1 |
| 20260906061022 | 26 | 237 | 0.0 | 1.6 | 0.00 | 0.00 | 0.00 | 94 | 1010.1 |
| 20260906060519 | 26 | 237 | 1.6 | 1.6 | 0.00 | 0.00 | 0.00 | 94 | 1010.5 |
| 20260906060016 | 26 | 237 | 1.6 | 1.6 | 0.00 | 0.00 | 0.00 | 94 | 1010.5 |
| 20260906055511 | 26 | 237 | 0.0 | 1.6 | 0.00 | 0.00 | 0.00 | 94 | 1010.5 |
| 20260906055007 | 26 | 237 | 0.0 | 1.6 | 0.00 | 0.00 | 0.00 | 93 | 1010.5 |
| 20260906054501 | 26 | 237 | 0.0 | 1.6 | 0.00 | 0.00 | 0.00 | 93 | 1010.5 |
| 20260906053956 | 26 | 237 | 0.0 | 1.6 | 0.00 | 0.00 | 0.00 | 93 | 1010.5 |
| 20260906053453 | 26 | 237 | 0.0 | 0.0 | 0.00 | 0.00 | 0.00 | 93 | 1010.8 |
| 20260906052948 | 26 | 237 | 0.0 | 0.0 | 0.00 | 0.00 | 0.00 | 93 | 1010.8 |
| 20260906052444 | 26 | 237 | 0.0 | 0.0 | 0.00 | 0.00 | 0.00 | 93 | 1010.8 |
| 20260906051941 | 27 | 237 | 0.0 | 0.0 | 0.00 | 0.00 | 0.00 | 93 | 1010.8 |
| 20260906051436 | 26 | 237 | 0.0 | 0.0 | 0.00 | 0.00 | 0.00 | 93 | 1010.8 |
| 20260906050932 | 27 | 237 | 0.0 | 1.6 | 0.00 | 0.00 | 0.00 | 93 | 1011.1 |
| 20260906050431 | 27 | 237 | 0.0 | 1.6 | 0.00 | 0.00 | 0.00 | 93 | 1011.1 |
| 20260906045930 | 27 | 237 | 0.0 | 1.6 | 0.00 | 0.00 | 0.00 | 93 | 1010.8 |
| 20260906045429 | 27 | 237 | 0.0 | 1.6 | 0.00 | 0.00 | 0.00 | 93 | 1011.1 |
| 20260906044926 | 27 | 237 | 1.6 | 1.6 | 0.00 | 0.00 | 0.00 | 93 | 1010.8 |
| 20260906044420 | 27 | 237 | 0.0 | 1.6 | 0.00 | 0.00 | 0.00 | 93 | 1011.1 |
| 20260906043916 | 27 | 237 | 0.0 | 1.6 | 0.00 | 0.00 | 0.00 | 93 | 1010.8 |
| 20260906043412 | 27 | 237 | 0.0 | 1.6 | 0.00 | 0.00 | 0.00 | 93 | 1010.8 |
| 20260906042907 | 27 | 237 | 0.0 | 3.2 | 0.00 | 0.00 | 0.00 | 93 | 1010.8 |
| 20260906042406 | 27 | 237 | 0.0 | 3.2 | 0.00 | 0.00 | 0.00 | 92 | 1010.8 |
| 20260906041901 | 27 | 237 | 0.0 | 1.6 | 0.00 | 0.00 | 0.00 | 92 | 1010.8 |
| 20260906041356 | 27 | 238 | 0.0 | 1.6 | 0.00 | 0.00 | 0.00 | 92 | 1011.1 |
| 20260906040851 | 27 | 231 | 0.0 | 3.2 | 0.00 | 0.00 | 0.00 | 92 | 1011.1 |
| 20260906040346 | 27 | 231 | 0.0 | 3.2 | 0.00 | 0.00 | 0.00 | 92 | 1011.1 |
| 20260906035842 | 27 | 221 | 0.0 | 4.8 | 0.00 | 0.00 | 0.00 | 92 | 1011.1 |
| 20260906035337 | 27 | 217 | 0.0 | 4.8 | 0.00 | 0.00 | 0.00 | 92 | 1011.1 |
| 20260906034832 | 27 | 242 | 3.2 | 4.8 | 0.00 | 0.00 | 0.00 | 92 | 1011.1 |
| 20260906034327 | 27 | 198 | 0.0 | 9.7 | 0.00 | 0.00 | 0.00 | 92 | 1011.1 |
| 20260906033823 | 27 | 168 | 1.6 | 9.7 | 0.00 | 0.00 | 0.00 | 92 | 1011.1 |
| 20260906033322 | 27 | 226 | 1.6 | 9.7 | 0.00 | 0.00 | 0.00 | 92 | 1011.1 |
| 20260906032818 | 27 | 210 | 1.6 | 9.7 | 0.00 | 0.00 | 0.00 | 92 | 1011.1 |
| 20260906032314 | 27 | 240 | 0.0 | 9.7 | 0.00 | 0.00 | 0.00 | 92 | 1011.1 |
| 20260906031809 | 27 | 189 | 3.2 | 9.7 | 0.00 | 0.00 | 0.00 | 92 | 1011.5 |
| 20260906031305 | 27 | 243 | 0.0 | 12.9 | 0.00 | 0.00 | 0.00 | 92 | 1011.5 |
| 20260906030804 | 27 | 275 | 1.6 | 12.9 | 0.00 | 0.00 | 0.00 | 92 | 1011.5 |
| 20260906030259 | 27 | 187 | 3.2 | 11.3 | 0.00 | 0.00 | 0.00 | 91 | 1011.1 |
| 20260906025759 | 27 | 204 | 1.6 | 11.3 | 0.00 | 0.00 | 0.00 | 91 | 1011.5 |
| 20260906025253 | 27 | 186 | 1.6 | 9.7 | 0.00 | 0.00 | 0.00 | 91 | 1011.1 |
| 20260906024752 | 28 | 197 | 3.2 | 14.5 | 0.00 | 0.00 | 0.00 | 91 | 1011.1 |
| 20260906024251 | 27 | 158 | 1.6 | 16.1 | 0.00 | 0.00 | 0.00 | 91 | 1011.1 |
| 20260906023747 | 27 | 232 | 4.8 | 17.7 | 0.00 | 0.00 | 0.00 | 91 | 1011.1 |
| 20260906023242 | 27 | 236 | 3.2 | 17.7 | 0.00 | 0.00 | 0.00 | 91 | 1011.1 |
| 20260906022738 | 27 | 233 | 8.0 | 14.5 | 0.00 | 0.00 | 0.00 | 91 | 1010.8 |
| 20260906022233 | 27 | 202 | 3.2 | 11.3 | 0.00 | 0.00 | 0.00 | 90 | 1010.8 |
| 20260906021729 | 27 | 190 | 4.8 | 11.3 | 0.00 | 0.00 | 0.00 | 90 | 1011.1 |
| 20260906021228 | 27 | 227 | 1.6 | 9.7 | 0.00 | 0.00 | 0.00 | 90 | 1011.1 |
| 20260906020723 | 28 | 196 | 1.6 | 9.7 | 0.00 | 0.00 | 0.00 | 90 | 1011.1 |
| 20260906020218 | 28 | 171 | 6.4 | 9.7 | 0.00 | 0.00 | 0.00 | 90 | 1011.1 |
| 20260906015712 | 28 | 241 | 6.4 | 9.7 | 0.00 | 0.00 | 0.00 | 90 | 1010.8 |
| 20260906015210 | 28 | 195 | 4.8 | 9.7 | 0.00 | 0.00 | 0.00 | 89 | 1011.1 |
| 20260906014705 | 28 | 208 | 4.8 | 9.7 | 0.00 | 0.00 | 0.00 | 89 | 1011.1 |
| 20260906014201 | 28 | 216 | 3.2 | 9.7 | 0.00 | 0.00 | 0.00 | 89 | 1010.8 |
| 20260906013657 | 28 | 194 | 1.6 | 8.0 | 0.00 | 0.00 | 0.00 | 89 | 1010.8 |
| 20260906013152 | 28 | 198 | 4.8 | 11.3 | 0.00 | 0.00 | 0.00 | 89 | 1011.1 |
| 20260906012651 | 28 | 202 | 1.6 | 11.3 | 0.00 | 0.00 | 0.00 | 88 | 1011.1 |
| 20260906012146 | 28 | 185 | 1.6 | 11.3 | 0.00 | 0.00 | 0.00 | 88 | 1010.8 |
| 20260906011642 | 28 | 189 | 4.8 | 9.7 | 0.00 | 0.00 | 0.00 | 88 | 1010.8 |
| 20260906011136 | 28 | 227 | 4.8 | 9.7 | 0.00 | 0.00 | 0.00 | 88 | 1010.8 |
| 20260906010631 | 28 | 183 | 4.8 | 9.7 | 0.00 | 0.00 | 0.00 | 87 | 1011.1 |
| 20260906010128 | 28 | 233 | 3.2 | 11.3 | 0.00 | 0.00 | 0.00 | 87 | 1010.8 |
| 20260906005621 | 28 | 188 | 3.2 | 12.9 | 0.00 | 0.00 | 0.00 | 87 | 1010.8 |
| 20260906005121 | 28 | 190 | 3.2 | 12.9 | 0.00 | 0.00 | 0.00 | 87 | 1010.8 |
| 20260906004620 | 28 | 192 | 1.6 | 9.7 | 0.00 | 0.00 | 0.00 | 86 | 1010.8 |
| 20260906004115 | 28 | 184 | 6.4 | 9.7 | 0.00 | 0.00 | 0.00 | 86 | 1011.1 |
| 20260906003610 | 28 | 201 | 1.6 | 8.0 | 0.00 | 0.00 | 0.00 | 86 | 1011.1 |
| 20260906003106 | 28 | 235 | 4.8 | 9.7 | 0.00 | 0.00 | 0.00 | 85 | 1011.1 |
| 20260906002601 | 28 | 249 | 0.0 | 11.3 | 0.00 | 0.00 | 0.00 | 85 | 1010.8 |
| 20260906002055 | 29 | 204 | 4.8 | 11.3 | 0.00 | 0.00 | 0.00 | 84 | 1010.8 |
| 20260906001545 | 29 | 192 | 3.2 | 9.7 | 0.00 | 0.00 | 0.00 | 84 | 1010.8 |
| 20260906001045 | 29 | 198 | 1.6 | 11.3 | 0.00 | 0.00 | 0.00 | 83 | 1010.8 |
| 20260906000541 | 29 | 205 | 4.8 | 12.9 | 0.00 | 0.00 | 0.00 | 82 | 1010.8 |
| 20260906000036 | 30 | 199 | 1.6 | 14.5 | 0.00 | 0.00 | 0.00 | 81 | 1010.8 |
| 20260905235530 | 30 | 183 | 4.8 | 16.1 | 0.00 | 0.00 | 0.00 | 80 | 1010.8 |
| 20260905235025 | 30 | 214 | 8.0 | 20.9 | 0.00 | 0.00 | 0.00 | 79 | 1011.1 |
| 20260905234520 | 30 | 216 | 12.9 | 20.9 | 0.00 | 0.00 | 0.00 | 78 | 1010.5 |
| 20260905234015 | 30 | 154 | 0.0 | 3.2 | 0.00 | 0.00 | 0.00 | 77 | 1010.8 |
| 20260905233510 | 30 | 154 | 0.0 | 3.2 | 0.00 | 0.00 | 0.00 | 77 | 1010.5 |
| 20260905233009 | 30 | 196 | 0.0 | 3.2 | 0.00 | 0.00 | 0.00 | 76 | 1010.5 |
| 20260905232505 | 30 | 195 | 0.0 | 3.2 | 0.00 | 0.00 | 0.00 | 76 | 1010.5 |
| 20260905232001 | 30 | 198 | 0.0 | 3.2 | 0.00 | 0.00 | 0.00 | 75 | 1010.5 |
| 20260905231456 | 30 | 194 | 0.0 | 4.8 | 0.00 | 0.00 | 0.00 | 75 | 1010.5 |
| 20260905230952 | 30 | 202 | 1.6 | 4.8 | 0.00 | 0.00 | 0.00 | 75 | 1010.5 |
| 20260905230450 | 30 | 198 | 3.2 | 9.7 | 0.00 | 0.00 | 0.00 | 75 | 1010.5 |
| 20260905225949 | 30 | 227 | 0.0 | 9.7 | 0.00 | 0.00 | 0.00 | 75 | 1010.5 |
| 20260905225444 | 31 | 178 | 0.0 | 4.8 | 0.00 | 0.00 | 0.00 | 75 | 1010.1 |
| 20260905224939 | 31 | 205 | 1.6 | 8.0 | 0.00 | 0.00 | 0.00 | 74 | 1010.1 |
| 20260905224435 | 31 | 207 | 0.0 | 12.9 | 0.00 | 0.00 | 0.00 | 74 | 1010.1 |
| 20260905223933 | 31 | 229 | 0.0 | 12.9 | 0.00 | 0.00 | 0.00 | 73 | 1010.5 |
| 20260905223432 | 31 | 201 | 6.4 | 17.7 | 0.00 | 0.00 | 0.00 | 73 | 1010.1 |
| 20260905222927 | 31 | 184 | 9.7 | 14.5 | 0.00 | 0.00 | 0.00 | 71 | 1010.1 |
| 20260905222426 | 32 | 228 | 1.6 | 11.3 | 0.00 | 0.00 | 0.00 | 71 | 1010.5 |
| 20260905221922 | 32 | 203 | 8.0 | 11.3 | 0.00 | 0.00 | 0.00 | 70 | 1010.1 |
| 20260905221419 | 32 | 192 | 8.0 | 9.7 | 0.00 | 0.00 | 0.00 | 69 | 1010.5 |
| 20260905220915 | 32 | 215 | 0.0 | 8.0 | 0.00 | 0.00 | 0.00 | 69 | 1010.5 |
| 20260905220410 | 32 | 196 | 0.0 | 8.0 | 0.00 | 0.00 | 0.00 | 66 | 1010.5 |
| 20260905215909 | 33 | 266 | 1.6 | 8.0 | 0.00 | 0.00 | 0.00 | 67 | 1010.8 |
| 20260905215405 | 33 | 169 | 3.2 | 11.3 | 0.00 | 0.00 | 0.00 | 67 | 1010.5 |
| 20260905214901 | 32 | 201 | 1.6 | 11.3 | 0.00 | 0.00 | 0.00 | 68 | 1011.1 |
| 20260905214356 | 32 | 178 | 3.2 | 11.3 | 0.00 | 0.00 | 0.00 | 69 | 1010.5 |
| 20260905213851 | 31 | 231 | 0.0 | 4.8 | 0.00 | 0.00 | 0.00 | 69 | 1010.8 |
| 20260905213348 | 32 | 231 | 0.0 | 4.8 | 0.00 | 0.00 | 0.00 | 67 | 1010.8 |
| 20260905212848 | 32 | 168 | 1.6 | 4.8 | 0.00 | 0.00 | 0.00 | 64 | 1010.8 |
| 20260905212347 | 33 | 212 | 1.6 | 4.8 | 0.00 | 0.00 | 0.00 | 63 | 1010.8 |
| 20260905211842 | 33 | 84 | 1.6 | 8.0 | 0.00 | 0.00 | 0.00 | 63 | 1010.5 |
| 20260905211337 | 33 | 190 | 0.0 | 8.0 | 0.00 | 0.00 | 0.00 | 63 | 1010.5 |
| 20260905210833 | 33 | 281 | 4.8 | 8.0 | 0.00 | 0.00 | 0.00 | 63 | 1010.5 |
| 20260905210328 | 33 | 125 | 1.6 | 12.9 | 0.00 | 0.00 | 0.00 | 62 | 1010.5 |
| 20260905205827 | 33 | 237 | 1.6 | 12.9 | 0.00 | 0.00 | 0.00 | 62 | 1010.5 |
| 20260905205321 | 33 | 209 | 0.0 | 8.0 | 0.00 | 0.00 | 0.00 | 62 | 1010.1 |
| 20260905204821 | 33 | 185 | 3.2 | 8.0 | 0.00 | 0.00 | 0.00 | 61 | 1010.1 |
| 20260905204317 | 33 | 265 | 4.8 | 11.3 | 0.00 | 0.00 | 0.00 | 61 | 1010.1 |
| 20260905203815 | 33 | 286 | 8.0 | 14.5 | 0.00 | 0.00 | 0.00 | 62 | 1010.1 |
| 20260905203312 | 33 | 336 | 4.8 | 11.3 | 0.00 | 0.00 | 0.00 | 62 | 1009.8 |
| 20260905202807 | 33 | 191 | 0.0 | 9.7 | 0.00 | 0.00 | 0.00 | 64 | 1009.8 |
| 20260905202306 | 32 | 269 | 3.2 | 9.7 | 0.00 | 0.00 | 0.00 | 64 | 1010.1 |
| 20260905201758 | 32 | 279 | 4.8 | 8.0 | 0.00 | 0.00 | 0.00 | 65 | 1009.8 |
| 20260905201253 | 32 | 34 | 3.2 | 11.3 | 0.00 | 0.00 | 0.00 | 65 | 1010.1 |
| 20260905200747 | 32 | 209 | 3.2 | 9.7 | 0.00 | 0.00 | 0.00 | 66 | 1010.1 |
| 20260905200243 | 32 | 174 | 4.8 | 9.7 | 0.00 | 0.00 | 0.00 | 65 | 1010.1 |
| 20260905195741 | 32 | 205 | 3.2 | 9.7 | 0.00 | 0.00 | 0.00 | 67 | 1010.1 |
| 20260905195236 | 32 | 27 | 3.2 | 8.0 | 0.00 | 0.00 | 0.00 | 66 | 1010.1 |
| 20260905194732 | 32 | 286 | 3.2 | 14.5 | 0.00 | 0.00 | 0.00 | 66 | 1010.5 |
| 20260905194231 | 32 | 225 | 6.4 | 14.5 | 0.00 | 0.00 | 0.00 | 67 | 1010.5 |
| 20260905193725 | 32 | 16 | 6.4 | 11.3 | 0.00 | 0.00 | 0.00 | 67 | 1010.5 |
| 20260905193220 | 32 | 279 | 6.4 | 11.3 | 0.00 | 0.00 | 0.00 | 67 | 1010.5 |
| 20260905192716 | 32 | 267 | 1.6 | 14.5 | 0.00 | 0.00 | 0.00 | 68 | 1010.5 |
| 20260905192213 | 32 | 283 | 1.6 | 14.5 | 0.00 | 0.00 | 0.00 | 68 | 1010.8 |
| 20260905191711 | 32 | 291 | 11.3 | 12.9 | 0.00 | 0.00 | 0.00 | 68 | 1010.8 |
| 20260905191209 | 32 | 189 | 3.2 | 12.9 | 0.00 | 0.00 | 0.00 | 68 | 1011.1 |
| 20260905190709 | 32 | 316 | 8.0 | 12.9 | 0.00 | 0.00 | 0.00 | 68 | 1011.1 |
| 20260905190208 | 32 | 88 | 3.2 | 12.9 | 0.00 | 0.00 | 0.00 | 69 | 1011.1 |
| 20260905185707 | 32 | 247 | 3.2 | 11.3 | 0.00 | 0.00 | 0.00 | 69 | 1011.1 |
| 20260905185207 | 32 | 250 | 6.4 | 11.3 | 0.00 | 0.00 | 0.00 | 68 | 1011.1 |
| 20260905184701 | 32 | 257 | 4.8 | 11.3 | 0.00 | 0.00 | 0.00 | 69 | 1011.5 |
| 20260905184200 | 32 | 170 | 6.4 | 11.3 | 0.00 | 0.00 | 0.00 | 69 | 1011.1 |
| 20260905183700 | 32 | 188 | 4.8 | 8.0 | 0.00 | 0.00 | 0.00 | 69 | 1011.5 |
| 20260905183155 | 32 | 94 | 1.6 | 11.3 | 0.00 | 0.00 | 0.00 | 70 | 1011.5 |
| 20260905182655 | 31 | 282 | 1.6 | 11.3 | 0.00 | 0.00 | 0.00 | 71 | 1011.5 |
| 20260905182154 | 31 | 274 | 3.2 | 9.7 | 0.00 | 0.00 | 0.00 | 70 | 1011.8 |
| 20260905181650 | 31 | 206 | 1.6 | 9.7 | 0.00 | 0.00 | 0.00 | 72 | 1011.8 |
| 20260905181149 | 31 | 224 | 3.2 | 9.7 | 0.00 | 0.00 | 0.00 | 72 | 1011.8 |
| 20260905180643 | 31 | 277 | 3.2 | 9.7 | 0.00 | 0.00 | 0.00 | 72 | 1011.8 |
| 20260905180139 | 31 | 203 | 6.4 | 9.7 | 0.00 | 0.00 | 0.00 | 72 | 1012.2 |
| 20260905175638 | 31 | 325 | 4.8 | 8.0 | 0.00 | 0.00 | 0.00 | 73 | 1012.2 |
| 20260905175133 | 31 | 134 | 3.2 | 11.3 | 0.00 | 0.00 | 0.00 | 73 | 1012.5 |
| 20260905174629 | 30 | 215 | 4.8 | 11.3 | 0.00 | 0.00 | 0.00 | 74 | 1012.5 |
| 20260905174124 | 31 | 269 | 3.2 | 11.3 | 0.00 | 0.00 | 0.00 | 73 | 1012.5 |
| 20260905173621 | 31 | 149 | 6.4 | 11.3 | 0.00 | 0.00 | 0.00 | 74 | 1012.5 |
| 20260905173116 | 31 | 175 | 0.0 | 11.3 | 0.00 | 0.00 | 0.00 | 74 | 1012.5 |
| 20260905172615 | 31 | 272 | 1.6 | 11.3 | 0.00 | 0.00 | 0.00 | 74 | 1012.8 |
| 20260905172110 | 31 | 271 | 6.4 | 12.9 | 0.00 | 0.00 | 0.00 | 76 | 1012.5 |
| 20260905171606 | 31 | 228 | 8.0 | 12.9 | 0.00 | 0.00 | 0.00 | 76 | 1012.8 |
| 20260905171102 | 30 | 143 | 3.2 | 14.5 | 0.00 | 0.00 | 0.00 | 76 | 1012.8 |
| 20260905170558 | 30 | 215 | 1.6 | 14.5 | 0.00 | 0.00 | 0.00 | 76 | 1012.8 |
| 20260905170054 | 30 | 304 | 1.6 | 11.3 | 0.00 | 0.00 | 0.00 | 77 | 1013.2 |
| 20260905165548 | 30 | 79 | 3.2 | 9.7 | 0.00 | 0.00 | 0.00 | 77 | 1013.2 |
| 20260905165043 | 30 | 105 | 4.8 | 11.3 | 0.00 | 0.00 | 0.00 | 79 | 1013.2 |
| 20260905164538 | 30 | 175 | 8.0 | 9.7 | 0.00 | 0.00 | 0.00 | 78 | 1013.2 |
| 20260905164032 | 30 | 228 | 1.6 | 9.7 | 0.00 | 0.00 | 0.00 | 77 | 1013.2 |
| 20260905163528 | 30 | 188 | 1.6 | 9.7 | 0.00 | 0.00 | 0.00 | 78 | 1013.2 |
| 20260905163025 | 30 | 132 | 3.2 | 9.7 | 0.00 | 0.00 | 0.00 | 78 | 1013.5 |
| 20260905162520 | 30 | 129 | 4.8 | 11.3 | 0.00 | 0.00 | 0.00 | 79 | 1013.5 |
| 20260905162015 | 29 | 236 | 4.8 | 11.3 | 0.00 | 0.00 | 0.00 | 79 | 1013.5 |
| 20260905161514 | 30 | 278 | 4.8 | 9.7 | 0.00 | 0.00 | 0.00 | 79 | 1013.5 |
| 20260905161012 | 29 | 166 | 3.2 | 12.9 | 0.00 | 0.00 | 0.00 | 79 | 1013.5 |
| 20260905160505 | 29 | 304 | 4.8 | 12.9 | 0.00 | 0.00 | 0.00 | 80 | 1013.8 |
| 20260905160000 | 28 | 341 | 6.4 | 12.9 | 0.00 | 0.00 | 0.00 | 81 | 1013.8 |
| 20260905155455 | 28 | 293 | 3.2 | 12.9 | 0.00 | 0.00 | 0.00 | 81 | 1013.8 |
| 20260905154953 | 28 | 266 | 4.8 | 12.9 | 0.00 | 0.00 | 0.00 | 81 | 1013.8 |
| 20260905154449 | 28 | 281 | 4.8 | 14.5 | 0.00 | 0.00 | 0.00 | 81 | 1013.8 |
| 20260905153944 | 28 | 265 | 4.8 | 14.5 | 0.00 | 0.00 | 0.00 | 82 | 1013.8 |
| 20260905153440 | 28 | 298 | 0.0 | 9.7 | 0.00 | 0.00 | 0.00 | 81 | 1013.8 |
| 20260905152940 | 28 | 226 | 0.0 | 12.9 | 0.00 | 0.00 | 0.00 | 83 | 1014.2 |
| 20260905152440 | 28 | 272 | 1.6 | 12.9 | 0.00 | 0.00 | 0.00 | 82 | 1014.2 |
| 20260905151940 | 28 | 260 | 4.8 | 11.3 | 0.00 | 0.00 | 0.00 | 82 | 1014.2 |
| 20260905151435 | 28 | 249 | 1.6 | 9.7 | 0.00 | 0.00 | 0.00 | 83 | 1013.8 |
| 20260905150930 | 28 | 250 | 4.8 | 12.9 | 0.00 | 0.00 | 0.00 | 83 | 1014.2 |
| 20260905150425 | 28 | 351 | 1.6 | 12.9 | 0.00 | 0.00 | 0.00 | 83 | 1014.2 |
| 20260905145921 | 28 | 324 | 9.7 | 14.5 | 0.00 | 0.00 | 0.00 | 83 | 1013.8 |
| 20260905145416 | 28 | 269 | 4.8 | 14.5 | 0.00 | 0.00 | 0.00 | 83 | 1014.2 |
| 20260905144915 | 27 | 351 | 4.8 | 9.7 | 0.00 | 0.00 | 0.00 | 84 | 1014.2 |
| 20260905144411 | 27 | 312 | 4.8 | 12.9 | 0.00 | 0.00 | 0.00 | 85 | 1014.2 |
| 20260905143909 | 27 | 192 | 1.6 | 12.9 | 0.00 | 0.00 | 0.00 | 86 | 1014.2 |
| 20260905143403 | 27 | 237 | 0.0 | 12.9 | 0.00 | 0.00 | 0.00 | 86 | 1014.2 |
| 20260905142903 | 27 | 340 | 3.2 | 12.9 | 0.00 | 0.00 | 0.00 | 87 | 1014.2 |
| 20260905142356 | 27 | 235 | 0.0 | 9.7 | 0.00 | 0.00 | 0.00 | 87 | 1014.2 |
| 20260905141852 | 27 | 327 | 1.6 | 9.7 | 0.00 | 0.00 | 0.00 | 87 | 1014.2 |
| 20260905141347 | 27 | 8 | 4.8 | 11.3 | 0.00 | 0.00 | 0.00 | 88 | 1014.2 |
| 20260905140844 | 27 | 287 | 8.0 | 11.3 | 0.00 | 0.00 | 0.00 | 88 | 1014.2 |
| 20260905140344 | 27 | 318 | 4.8 | 11.3 | 0.00 | 0.00 | 0.00 | 88 | 1014.2 |
| 20260905135842 | 27 | 215 | 6.4 | 11.3 | 0.00 | 0.00 | 0.00 | 89 | 1014.2 |
| 20260905135338 | 26 | 66 | 1.6 | 9.7 | 0.00 | 0.00 | 0.00 | 89 | 1014.2 |
| 20260905134833 | 26 | 262 | 1.6 | 9.7 | 0.00 | 0.00 | 0.00 | 89 | 1014.2 |
| 20260905134327 | 26 | 326 | 3.2 | 9.7 | 0.00 | 0.00 | 0.00 | 89 | 1014.2 |
| 20260905133827 | 26 | 185 | 0.0 | 11.3 | 0.00 | 0.00 | 0.00 | 90 | 1014.2 |
| 20260905133322 | 26 | 249 | 1.6 | 12.9 | 0.00 | 0.00 | 0.00 | 90 | 1014.2 |
| 20260905132821 | 26 | 262 | 3.2 | 12.9 | 0.00 | 0.00 | 0.00 | 90 | 1014.2 |
| 20260905132317 | 26 | 289 | 4.8 | 11.3 | 0.00 | 0.00 | 0.00 | 90 | 1014.2 |
| 20260905131817 | 26 | 299 | 3.2 | 12.9 | 0.00 | 0.00 | 0.00 | 90 | 1014.2 |
| 20260905131313 | 26 | 264 | 1.6 | 12.9 | 0.00 | 0.00 | 0.00 | 90 | 1014.2 |
| 20260905130808 | 26 | 293 | 8.0 | 12.9 | 0.00 | 0.00 | 0.00 | 90 | 1014.2 |
| 20260905130306 | 26 | 286 | 6.4 | 12.9 | 0.00 | 0.00 | 0.00 | 90 | 1014.2 |
| 20260905125802 | 26 | 259 | 4.8 | 11.3 | 0.00 | 0.00 | 0.00 | 90 | 1014.2 |
| 20260905125256 | 27 | 294 | 1.6 | 9.7 | 0.00 | 0.00 | 0.00 | 91 | 1013.8 |
| 20260905124753 | 26 | 302 | 3.2 | 9.7 | 0.00 | 0.00 | 0.00 | 91 | 1013.8 |
| 20260905124249 | 26 | 332 | 4.8 | 9.7 | 0.00 | 0.00 | 0.00 | 91 | 1013.8 |
| 20260905123743 | 26 | 233 | 1.6 | 9.7 | 0.00 | 0.00 | 0.00 | 92 | 1013.8 |
| 20260905123241 | 26 | 284 | 0.0 | 8.0 | 0.00 | 0.00 | 0.00 | 92 | 1013.8 |
| 20260905122741 | 26 | 256 | 0.0 | 9.7 | 0.00 | 0.00 | 0.00 | 92 | 1013.8 |
| 20260905122240 | 26 | 293 | 4.8 | 9.7 | 0.00 | 0.00 | 0.00 | 92 | 1013.8 |
| 20260905121736 | 26 | 259 | 0.0 | 4.8 | 0.00 | 0.00 | 0.00 | 93 | 1013.8 |
| 20260905121232 | 26 | 333 | 4.8 | 4.8 | 0.00 | 0.00 | 0.00 | 93 | 1013.8 |
| 20260905120730 | 26 | 293 | 0.0 | 4.8 | 0.00 | 0.00 | 0.00 | 93 | 1013.8 |
| 20260905120225 | 26 | 300 | 0.0 | 3.2 | 0.00 | 0.00 | 0.00 | 93 | 1013.8 |
| 20260905115720 | 26 | 299 | 0.0 | 3.2 | 0.00 | 0.00 | 0.00 | 93 | 1013.5 |
| 20260905115220 | 25 | 288 | 0.0 | 1.6 | 0.00 | 0.00 | 0.00 | 94 | 1013.8 |
| 20260905114714 | 25 | 288 | 0.0 | 1.6 | 0.00 | 0.00 | 0.00 | 94 | 1013.5 |
| 20260905114212 | 25 | 288 | 0.0 | 1.6 | 0.00 | 0.00 | 0.00 | 94 | 1013.8 |
| 20260905113707 | 25 | 288 | 0.0 | 3.2 | 0.00 | 0.00 | 0.00 | 94 | 1013.5 |